Regional Weather Roundup
Issued by NWS

Home | Current Version | Previous Version | Text Only | Print | Product List | Glossary On
Versions: 1 2 3 4 5 6 7 8 9 10 11 12 13 14 15 16 17 18 19 20 21 22 23 24 25 26 27 28 29 30 31 32 33 34 35 36 37 38 39 40 41 42 43 44 45 46 47 48 49 50
000
ASCA44 KEWX 292220
RWRMX

LATIN AMERICA AND CARIBBEAN REGIONAL WEATHER ROUNDUP
NATIONAL WEATHER SERVICE AUSTIN/SAN ANTONIO TX
500 PM CDT FRI APR 29 2016

NOTE: "FAIR" INDICATED FEW OR NO CLOUDS BELOW 12,000 FEET WITH NO
SIGNIFICANT WEATHER AND/OR OBSTRUCTIONS TO VISIBILITY.

BAJA CALIFORNIA

CITY           SKY/WX    TMP DP  RH WIND       PRES   REMARKS
LORETO         PTSUNNY   75  63  64 NE14      29.88F
LA PAZ         PTSUNNY   77  59  53 N14       29.89F
MEXICALI       SUNNY     84  30  14 CALM      29.83F
S.J. DEL CABO  PTSUNNY   82  61  47 S13       29.85F
TIJUANA        SUNNY     64  48  55 W9        30.01F

NORTHWESTERN MEXICO

CITY           SKY/WX    TMP DP  RH WIND       PRES   REMARKS
CULIACAN       CLOUDY    84  68  58 S7        29.85F
DURANGO        CLOUDY    75   3   6 S16       29.99F
GUAYMAS        SUNNY     75  59  57 S12       29.81F
HERMOSILLO     SUNNY     86  30  13 W7        29.87F
CD. JUAREZ     SUNNY     73  27  17 NW17      29.79F
LOS MOCHIS     PTSUNNY   81  61  50 W13       29.85F
OBREGON        MOSUNNY   84  32  15 SW7       29.80F

NORTHEASTERN MEXICO

CITY           SKY/WX    TMP DP  RH WIND       PRES   REMARKS
CHIHUAHUA      MOSUNNY   82  19   9 W15       29.80F
MATAMOROS      CLOUDY    82  77  83 SE16      29.60F HX  91
MONCLOVA       PTSUNNY   95  32  11 S17       29.59  HX  90
MONTERREY      CLOUDY    88  57  35 SE8       29.59F
NUEVO LAREDO   PTSUNNY   95  66  38 CALM      29.54F HX  98
PIEDRAS NEGRAS PTSUNNY   93  72  49 E9        29.56  HX 100
REYNOSA        CLOUDY    82  72  69 SE14      29.58F
SALTILLO       CLOUDY    81  50  34 W14       29.89F
TORREON        CLOUDY    91  12   5 SW14      29.76F
CD. VICTORIA   PTSUNNY   90  70  51 E3        29.56F HX  95

WESTERN MEXICO

CITY           SKY/WX    TMP DP  RH WIND       PRES   REMARKS
AGUASCALIENTES PTSUNNY   84   1   4 W16       30.03F
COLIMA         PTSUNNY   82  45  26 W14       29.93F
DEL BAJIO      CLOUDY    86  12   6 W12       30.08F
GUADALAJARA    CLOUDY    86   1   4 NW23      29.99F
MANZANILLO     MOSUNNY   77  72  83 W23       29.78F
MAZATLAN       CLOUDY    79  64  61 W10       29.85F
P. VALLARTA    CLOUDY    79  68  69 SW10      29.84F
URUAPAN        CLOUDY    81  37  21 SW12      30.05F
ZACATECAS      PTSUNNY   79  21  11 SW23      30.07F

CENTRAL MEXICO

CITY           SKY/WX    TMP DP  RH WIND       PRES   REMARKS
CUERNAVACA       N/A    N/A N/A N/A MISG        N/A
MEXICO CITY    CLOUDY    84  28  13 W12       30.10F
MORELIA        PTSUNNY   84  19   9 SE13      30.04F
POZA RICA      PTSUNNY   93  75  55 NE9       29.54S HX 104
PUEBLA         PTSUNNY   81  36  19 S30       30.10F
QUERETARO      CLOUDY    86  21   9 W23       30.06F
S. LUIS POTOSI CLOUDY    84  -8   3 SW20      29.97F
TAMPICO        PTSUNNY   84  75  74 SE12      29.55F HX  92
TOLUCA         CLOUDY    81  34  18 W16       30.22F

SOUTHERN MEXICO

CITY           SKY/WX    TMP DP  RH WIND       PRES   REMARKS
ACAPULCO       PTSUNNY   82  73  74 W16       29.76F
B. DE HUATULCO MOSUNNY   86  72  62 W17       29.80F HX  92
OAXACA         PTSUNNY   91  37  15 SE20      29.94F
P. ESCONDIDO   MOSUNNY   82  75  78 W10       29.86F
VERACRUZ       PTSUNNY   91  72  52 E15       29.55F HX  98
ZIHUATANEJO    PTSUNNY   84  72  65 W9        29.79F

YUCATAN PENINSULA

CITY           SKY/WX    TMP DP  RH WIND       PRES   REMARKS
CAMPECHE       MOSUNNY  100  64  30 E14       29.62F HX 103
CANCUN         MOSUNNY   84  75  74 SE15      29.84F HX  92
CHETUMAL       PTSUNNY   86  73  66 SE23      29.77F HX  93
CD. DEL CARMEN PTSUNNY   93  75  55 NE8       29.63F HX 104
COZUMEL        PTSUNNY   81  73  78 E16       29.83F
MERIDA         PTSUNNY  100  63  28 E7        29.68F HX 102
MINATITLAN     PTSUNNY  100  68  34 S12       29.54F HX 106
TAPACHULA      SUNNY     90  75  62 W12       29.72R HX 100
TUX. GUTIERREZ SUNNY     97  55  24 S7G20     29.70F HX  95
VILLAHERMOSA   SUNNY     97  79  56 E14       29.63F HX 115

CENTRAL AMERICA

CITY           SKY/WX    TMP DP  RH WIND       PRES   REMARKS
BELIZE CITY    PTSUNNY   88  79  74 E12       29.77F HX 102
MANAGUA        PTCLDY    95  75  52 N9        29.68F HX 107

CARIBBEAN

CITY           SKY/WX    TMP DP  RH WIND       PRES   REMARKS
ARUBA          MOSUNNY   86  79  79 NE17      29.77R HX  99
CURACAO        MOSUNNY   84  79  84 E13       29.80R HX  96
KINGSTON       MOSUNNY   88  75  66 SE14      29.83R HX  97
NASSAU         MOSUNNY   77  66  69 NE9       29.96S
SAN JUAN       MOCLDY    81  70  69 S5        29.89S
SANTO DOMINGO  PTSUNNY   81  75  83 CALM      29.83F
ST. CROIX      PTCLDY    82  73  74 E9        29.93R
ST. MAARTEN    PTCLDY    82  75  78 SE9       29.92S
ST. THOMAS     CLEAR     82  77  83 SE12      29.90R HX  91

$$





USA.gov is the U.S. government's official web portal to all federal, state and local government web resources and services.